Location: Observatoire
(46.1952°N, 5.3391°E)
Time: 22:39:45
(UTC+01:00)

Tiros 1 despin weight - Pass Details

Date: 20 February 2026
Orbit: 556 x 593 km, 48.2° (Epoch: 7 March)

Event Time Altitude Azimuth Distance (km) Brightness Sun altitude
Rises 19:52:31 0° 288° (WNW) 2,734 ? -18.1°
Reaches altitude 10° 19:54:48 10° 283° (WNW) 1,837 ? -18.5°
Maximum altitude 19:58:50 48° 209° (SSW) 728 ? -19.2°
Enters shadow 20:00:27 31° 153° (SSE) 988 ? -19.5°
Drops below altitude 10° 20:02:53 10° 134° (SE) 1,838 - -19.9°
Sets 20:05:11 0° 129° (SE) 2,735 - -20.3°
